Location: Unspecified
(0.0000°N, 0.0000°E)
Time: 14:14:03
(UTC+02:00)

NATO 3D Rocket - Visible Passes

Search period start: 01 October 2014 00:00
Search period end: 11 October 2014 00:00
Orbit: 670 x 2297 km, 21.5° (Epoch: 29 September)

Date Brightness Start Highest point End Pass type
(mag) Time Alt. Az. Time Alt. Az. Time Alt. Az.
01 Oct 6.3 06:18:18 10° SSW 06:21:16 13° SSE 06:24:39 10° SE visible
01 Oct 5.1 20:59:26 10° NW 21:07:13 32° NNE 21:09:48 25° NE visible
01 Oct 6.6 23:04:35 10° WNW 23:05:23 13° WNW 23:05:23 13° WNW visible
02 Oct 6.3 07:23:16 10° SSW 07:28:48 22° SSE 07:35:52 10° ESE visible
02 Oct 5.8 20:00:44 10° NW 20:09:25 30° N 20:15:51 10° ENE visible
02 Oct 5.0 22:06:25 10° WNW 22:12:15 43° NW 22:12:15 43° NW visible
03 Oct 6.2 06:27:34 10° SSW 06:31:11 15° SSE 06:35:26 10° SE visible
03 Oct 4.7 21:07:58 10° NW 21:16:58 48° NNE 21:19:09 38° ENE visible
03 Oct 6.7 23:13:52 10° WNW 23:14:44 13° WNW 23:14:44 13° WNW visible
04 Oct 5.4 20:09:13 10° NW 20:19:14 42° NNE 20:26:06 11° E visible
04 Oct 4.9 22:15:22 10° WNW 22:21:40 50° WNW 22:21:40 50° WNW visible
05 Oct 6.1 06:36:30 10° SSW 06:40:52 19° SSE 06:46:16 10° ESE visible
05 Oct 4.4 21:16:40 10° WNW 21:26:30 73° NNE 21:28:38 49° E visible
05 Oct 6.8 23:23:32 10° W 23:24:13 12° W 23:24:13 12° W visible
06 Oct 6.1 05:41:36 11° S 05:43:32 12° SSE 05:45:58 10° SE visible
06 Oct 5.1 20:17:46 10° WNW 20:28:50 60° NNE 20:35:38 14° E visible
06 Oct 5.2 22:24:38 10° WNW 22:31:13 45° WSW 22:31:13 45° WSW visible
07 Oct 5.9 06:45:25 10° SSW 06:50:22 26° SSE 06:56:48 10° ESE visible
07 Oct 4.6 21:25:36 10° WNW 21:35:51 77° SSW 21:38:14 49° SE visible
07 Oct 7.0 23:33:38 10° WSW 23:33:49 11° WSW 23:33:49 11° WSW visible
08 Oct 5.8 05:50:52 13° S 05:53:13 17° SSE 05:57:15 10° ESE visible
08 Oct 4.9 20:26:29 10° WNW 20:38:12 84° NNE 20:45:15 15° ESE visible
08 Oct 5.6 22:34:17 10° W 22:40:50 35° SW 22:40:50 35° SW visible
09 Oct 5.3 06:54:27 10° SW 06:59:43 38° SSE 07:06:53 10° E visible
09 Oct 5.1 21:34:53 10° W 21:45:04 54° SSW 21:47:53 38° SSE visible
10 Oct 5.4 06:00:17 18° SSW 06:02:44 25° SSE 06:07:55 10° ESE visible
10 Oct 5.2 20:35:27 10° WNW 20:47:24 72° SSW 20:54:55 13° ESE visible
10 Oct 6.1 22:44:21 10° W 22:50:30 26° SW 22:50:30 26° SW visible
